Date String (YYYY-MM-DD hh:mm:ss) UTC,Instrument flags,Ambient pressure (hPa),Sample flow (lpm),Bypass flow (lpm),Sample temperature (°C),Ambient temperature (°C),ASC tube jacket temperature (°C),LED temperature (°C),Box temperature (°C),Sample RH (%),Span deviation,Mass concentration (μg/m³),Mass concentration (μg/m³),Mass concentration (μg/m³)
DateTimeUTC,F1_M11,P_M11,Q1_M11,Q2_M11,T1_M11,T2_M11,T3_M11,T4_M11,T5_M11,U1_M11,ZSPAN_M11,X2_M11,X0_M11,X1_M11
2021-12-30 04:00:00,,0815.2,4.99,0.00,22.6,21.9,00.0,31.6,24.2,06.6,0000.0,0005.30,0022.13,0003.13
2021-12-30 04:01:00,,0815.1,5.01,0.00,22.6,21.8,00.0,31.6,24.1,06.6,0000.0,0005.35,0023.27,0003.15
2021-12-30 04:02:00,,0815.0,5.01,0.00,22.5,21.7,00.0,31.6,24.1,06.6,0000.0,0005.32,0024.65,0003.17
2021-12-30 04:03:00,,0814.6,4.98,0.00,22.5,21.7,00.0,31.5,24.0,06.6,0000.0,0005.35,0025.92,0003.20
2021-12-30 04:04:00,,0814.7,5.00,0.00,22.5,21.6,00.0,31.5,24.0,06.6,0000.0,0005.28,0025.36,0003.22
2021-12-30 04:05:00,,0814.5,5.00,0.00,22.4,21.6,00.0,31.5,24.0,06.6,0000.0,0005.22,0025.38,0003.22
2021-12-30 04:06:00,,0814.9,5.00,0.00,22.4,21.6,00.0,31.5,24.0,06.6,0000.0,0005.14,0026.18,0003.21
2021-12-30 04:07:00,,0814.8,5.01,0.00,22.3,21.5,00.0,31.5,23.9,06.6,0000.0,0005.16,0027.15,0003.20
2021-12-30 04:08:00,,0814.7,4.99,0.00,22.4,22.0,00.0,31.5,24.1,06.6,0000.0,0005.14,0026.72,0003.20
2021-12-30 04:09:00,,0815.1,5.02,0.00,22.5,22.7,00.0,31.5,24.3,06.6,0000.0,0005.07,0025.66,0003.20
2021-12-30 04:10:00,,0815.1,4.99,0.00,22.6,23.1,00.0,31.6,24.5,06.5,0000.0,0005.01,0025.01,0003.19
2021-12-30 04:11:00,,0815.1,5.00,0.00,22.7,22.9,00.0,31.6,24.5,06.6,0000.0,0005.02,0024.13,0003.19
2021-12-30 04:12:00,,0815.0,5.00,0.00,22.7,22.7,00.0,31.6,24.4,06.6,0000.0,0004.95,0022.64,0003.20
2021-12-30 04:13:00,,0814.8,5.01,0.00,22.7,22.5,00.0,31.6,24.3,06.5,0000.0,0004.87,0021.14,0003.20
2021-12-30 04:14:00,,0814.7,5.00,0.00,22.6,22.3,00.0,31.6,24.3,06.6,0000.0,0004.85,0020.34,0003.20
2021-12-30 04:15:00,,0814.9,5.00,0.00,22.6,22.1,00.0,31.6,24.3,06.6,0000.0,0004.83,0020.91,0003.19
2021-12-30 04:16:00,,0815.0,5.01,0.00,22.6,22.0,00.0,31.6,24.2,06.6,0000.0,0004.85,0020.49,0003.19
2021-12-30 04:17:00,,0815.2,4.99,0.00,22.5,21.9,00.0,31.5,24.2,06.6,0000.0,0004.88,0019.77,0003.19
2021-12-30 04:18:00,,0815.1,5.00,0.00,22.5,21.8,00.0,31.5,24.1,06.6,0000.0,0004.90,0019.94,0003.21
2021-12-30 04:19:00,,0815.0,5.01,0.00,22.5,21.7,00.0,31.5,24.0,06.6,0000.0,0004.92,0021.12,0003.21
2021-12-30 04:20:00,,0815.1,5.00,0.00,22.4,21.7,00.0,31.5,24.0,06.6,0000.0,0005.00,0021.18,0003.23
2021-12-30 04:21:00,,0815.2,4.99,0.00,22.4,21.6,00.0,31.5,24.0,06.6,0000.0,0005.01,0020.46,0003.24
2021-12-30 04:22:00,,0815.1,5.01,0.00,22.4,21.5,00.0,31.5,23.9,06.6,0000.0,0004.96,0020.15,0003.23
2021-12-30 04:23:00,,0815.0,5.01,0.00,22.4,21.5,00.0,31.5,23.9,06.6,0000.0,0004.89,0019.81,0003.21
2021-12-30 04:24:00,,0814.6,4.99,0.00,22.3,21.7,00.0,31.5,23.9,06.6,0000.0,0004.94,0019.70,0003.19
2021-12-30 04:25:00,,0814.7,5.00,0.00,22.4,22.4,00.0,31.5,24.2,06.6,0000.0,0004.90,0019.32,0003.17
2021-12-30 04:26:00,,0815.0,5.00,0.00,22.6,23.1,00.0,31.5,24.5,06.5,0000.0,0004.88,0018.92,0003.15
2021-12-30 04:27:00,,0815.0,5.00,0.00,22.7,23.1,00.0,31.5,24.6,06.5,0000.0,0004.88,0019.42,0003.15
2021-12-30 04:28:00,,0814.5,5.00,0.00,22.7,22.9,00.0,31.5,24.5,06.5,0000.0,0004.81,0018.60,0003.13
2021-12-30 04:29:00,,0814.6,5.00,0.00,22.7,22.7,00.0,31.6,24.4,06.5,0000.0,0004.85,0018.19,0003.12
2021-12-30 04:30:00,,0814.4,5.00,0.00,22.7,22.4,00.0,31.6,24.4,06.5,0000.0,0004.81,0016.34,0003.12
2021-12-30 04:31:00,,0814.7,4.99,0.00,22.6,22.3,00.0,31.6,24.3,06.5,0000.0,0004.68,0016.64,0003.07
2021-12-30 04:32:00,,0814.5,5.01,0.00,22.6,22.1,00.0,31.6,24.2,06.5,0000.0,0004.61,0016.05,0003.05
2021-12-30 04:33:00,,0814.7,5.00,0.00,22.6,22.0,00.0,31.6,24.2,06.5,0000.0,0004.64,0016.14,0003.02
2021-12-30 04:34:00,,0814.5,4.99,0.00,22.5,21.9,00.0,31.5,24.1,06.5,0000.0,0004.64,0016.42,0003.01
2021-12-30 04:35:00,,0814.4,5.00,0.00,22.5,21.8,00.0,31.5,24.1,06.5,0000.0,0004.56,0016.27,0002.98
2021-12-30 04:36:00,,0814.4,5.02,0.00,22.5,21.7,00.0,31.5,24.0,06.5,0000.0,0004.51,0016.98,0002.93
2021-12-30 04:37:00,,0814.4,4.99,0.00,22.4,21.7,00.0,31.5,24.0,06.5,0000.0,0004.46,0016.24,0002.92
2021-12-30 04:38:00,,0814.4,5.01,0.00,22.4,21.6,00.0,31.5,24.0,06.5,0000.0,0004.42,0015.68,0002.91
2021-12-30 04:39:00,,0814.3,5.01,0.00,22.4,21.6,00.0,31.5,23.9,06.6,0000.0,0004.40,0015.48,0002.88
2021-12-30 04:40:00,,0814.2,4.99,0.00,22.3,21.5,00.0,31.5,23.9,06.6,0000.0,0004.36,0014.85,0002.83
2021-12-30 04:41:00,,0814.3,5.01,0.00,22.3,21.5,00.0,31.4,23.9,06.6,0000.0,0004.33,0014.94,0002.79
2021-12-30 04:42:00,,0814.4,4.99,0.00,22.4,21.9,00.0,31.5,24.1,06.6,0000.0,0004.34,0014.14,0002.78
2021-12-30 04:43:00,,0814.4,5.01,0.00,22.5,22.7,00.0,31.5,24.3,06.5,0000.0,0004.31,0014.69,0002.76
2021-12-30 04:44:00,,0814.4,5.00,0.00,22.6,23.2,00.0,31.5,24.5,06.5,0000.0,0004.31,0014.82,0002.76
2021-12-30 04:45:00,,0814.4,4.99,0.00,22.7,23.0,00.0,31.5,24.5,06.4,0000.0,0004.31,0014.42,0002.75
2021-12-30 04:46:00,,0814.5,5.01,0.00,22.7,22.8,00.0,31.5,24.5,06.4,0000.0,0004.33,0014.25,0002.75
2021-12-30 04:47:00,,0814.4,5.01,0.00,22.6,22.6,00.0,31.5,24.4,06.4,0000.0,0004.34,0013.58,0002.78
2021-12-30 04:48:00,,0814.5,4.99,0.00,22.6,22.4,00.0,31.5,24.3,06.4,0000.0,0004.39,0014.63,0002.78
2021-12-30 04:49:00,,0814.6,5.00,0.00,22.6,22.2,00.0,31.5,24.2,06.5,0000.0,0004.42,0015.11,0002.76
2021-12-30 04:50:00,,0814.6,4.98,0.00,22.5,22.0,00.0,31.5,24.2,06.5,0000.0,0004.46,0015.89,0002.77
2021-12-30 04:51:00,,0814.4,5.02,0.00,22.5,21.9,00.0,31.5,24.1,06.5,0000.0,0004.45,0016.50,0002.78
2021-12-30 04:52:00,,0814.4,4.99,0.00,22.5,21.8,00.0,31.5,24.1,06.5,0000.0,0004.41,0017.30,0002.79
2021-12-30 04:53:00,,0814.4,5.00,0.00,22.4,21.7,00.0,31.5,24.0,06.5,0000.0,0004.37,0018.21,0002.78
2021-12-30 04:54:00,,0814.4,5.00,0.00,22.4,21.7,00.0,31.5,24.0,06.5,0000.0,0004.37,0017.55,0002.76
2021-12-30 04:55:00,,0814.4,5.01,0.00,22.4,21.6,00.0,31.5,24.0,06.5,0000.0,0004.40,0018.55,0002.75
2021-12-30 04:56:00,,0814.3,4.99,0.00,22.4,21.5,00.0,31.5,24.0,06.5,0000.0,0004.38,0018.70,0002.73
2021-12-30 04:57:00,,0814.4,4.99,0.00,22.4,21.5,00.0,31.4,24.0,06.5,0000.0,0004.36,0019.11,0002.71
2021-12-30 04:58:00,,0814.4,5.01,0.00,22.4,21.7,00.0,31.4,24.0,06.5,0000.0,0004.33,0019.30,0002.67
2021-12-30 04:59:00,,0814.6,5.00,0.00,22.5,22.3,00.0,31.5,24.2,06.5,0000.0,0004.30,0018.03,0002.63
